"Period start","avg(HW err(1)/warn(2) (#))","avg(Visibility (m))","avg(Weather code (#))","avg(Precip intensity (mm/h))","min(HW err(1)/warn(2) (#))","max(HW err(1)/warn(2) (#))","std(HW err(1)/warn(2) (#))","med(HW err(1)/warn(2) (#))","min(Visibility (m))","max(Visibility (m))","std(Visibility (m))","med(Visibility (m))","min(Weather code (#))","max(Weather code (#))","std(Weather code (#))","med(Weather code (#))","min(Precip intensity (mm/h))","max(Precip intensity (mm/h))","std(Precip intensity (mm/h))","med(Precip intensity (mm/h))"
2017-09-19 00:00:00,2,45678,0,0.00,2,2,0,2,35652,50000,5329,48740,0,0,0,0,0.00,0.00,0.00,0.00
2017-09-19 00:10:00,2,46556,0,0.00,2,2,0,2,36781,50000,4000,47796,0,0,0,0,0.00,0.00,0.00,0.00
2017-09-19 00:20:00,2,46996,0,0.00,2,2,0,2,33454,50000,5009,49576,0,0,0,0,0.00,0.00,0.00,0.00
2017-09-19 00:30:00,2,45643,0,0.00,2,2,0,2,37259,50000,4652,47201,0,0,0,0,0.00,0.00,0.00,0.00
2017-09-19 00:40:00,2,47358,0,0.00,2,2,0,2,40797,50000,3111,48678,0,0,0,0,0.00,0.00,0.00,0.00
2017-09-19 00:50:00,2,46280,0,0.00,2,2,0,2,38510,50000,3744,46406,0,0,0,0,0.00,0.00,0.00,0.00
2017-09-19 01:00:00,2,42414,0,0.00,2,2,0,2,33952,50000,5403,43178,0,0,0,0,0.00,0.00,0.00,0.00
2017-09-19 01:10:00,2,40539,0,0.00,2,2,0,2,29635,48161,6364,38604,0,0,0,0,0.00,0.00,0.00,0.00
2017-09-19 01:20:00,2,46039,0,0.00,2,2,0,2,32680,50000,5628,49152,0,0,0,0,0.00,0.00,0.00,0.00
2017-09-19 01:30:00,2,41726,0,0.00,2,2,0,2,34272,50000,6421,39652,0,0,0,0,0.00,0.00,0.00,0.00
2017-09-19 01:40:00,2,38813,0,0.00,2,2,0,2,22474,50000,9617,40322,0,0,0,0,0.00,0.00,0.00,0.00
2017-09-19 01:50:00,2,41666,0,0.00,2,2,0,2,32437,50000,6029,40700,0,0,0,0,0.00,0.00,0.00,0.00
2017-09-19 02:00:00,2,38721,0,0.00,2,2,0,2,26101,50000,8330,35739,0,0,0,0,0.00,0.00,0.00,0.00
2017-09-19 02:10:00,2,41841,0,0.00,2,2,0,2,26503,50000,8603,43706,0,0,0,0,0.00,0.00,0.00,0.00
2017-09-19 02:20:00,2,44821,0,0.00,2,2,0,2,31815,50000,6515,47994,0,0,0,0,0.00,0.00,0.00,0.00
2017-09-19 02:30:00,2,43267,0,0.00,2,2,0,2,33387,50000,5885,43407,0,0,0,0,0.00,0.00,0.00,0.00
2017-09-19 02:40:00,2,42506,0,0.00,2,2,0,2,34200,50000,5545,42834,0,0,0,0,0.00,0.00,0.00,0.00
2017-09-19 02:50:00,2,36282,0,0.00,2,2,0,2,20145,50000,10847,34690,0,0,0,0,0.00,0.00,0.00,0.00
2017-09-19 03:00:00,2,42631,0,0.00,2,2,0,2,26826,50000,8157,45709,0,0,0,0,0.00,0.00,0.00,0.00
2017-09-19 03:10:00,2,38768,0,0.00,2,2,0,2,16575,48683,9593,40922,0,0,0,0,0.00,0.00,0.00,0.00
2017-09-19 03:20:00,2,43776,0,0.00,2,2,0,2,28193,50000,6382,45140,0,0,0,0,0.00,0.00,0.00,0.00
2017-09-19 03:30:00,2,43674,0,0.00,2,2,0,2,36081,50000,5641,43262,0,0,0,0,0.00,0.00,0.00,0.00
2017-09-19 03:40:00,2,46327,0,0.00,2,2,0,2,30694,50000,6946,50000,0,0,0,0,0.00,0.00,0.00,0.00
2017-09-19 03:50:00,2,43566,0,0.00,2,2,0,2,30417,50000,5954,44175,0,0,0,0,0.00,0.00,0.00,0.00
"Period start","avg(HW err(1)/warn(2) (#))","avg(Visibility (m))","avg(Weather code (#))","avg(Precip intensity (mm/h))","min(HW err(1)/warn(2) (#))","max(HW err(1)/warn(2) (#))","std(HW err(1)/warn(2) (#))","med(HW err(1)/warn(2) (#))","min(Visibility (m))","max(Visibility (m))","std(Visibility (m))","med(Visibility (m))","min(Weather code (#))","max(Weather code (#))","std(Weather code (#))","med(Weather code (#))","min(Precip intensity (mm/h))","max(Precip intensity (mm/h))","std(Precip intensity (mm/h))","med(Precip intensity (mm/h))"
2017-09-19 04:00:00,2,44478,0,0.00,2,2,0,2,29776,50000,6762,47814,0,0,0,0,0.00,0.00,0.00,0.00
2017-09-19 04:10:00,2,48967,0,0.00,2,2,0,2,46645,50000,1165,49410,0,0,0,0,0.00,0.00,0.00,0.00
2017-09-19 04:20:00,2,47005,0,0.00,2,2,0,2,40419,50000,3455,48380,0,0,0,0,0.00,0.00,0.00,0.00
2017-09-19 04:30:00,2,47898,0,0.00,2,2,0,2,43335,50000,2128,47943,0,0,0,0,0.00,0.00,0.00,0.00
2017-09-19 04:40:00,2,50000,0,0.00,2,2,0,2,50000,50000,0,50000,0,0,0,0,0.00,0.00,0.00,0.00
2017-09-19 04:50:00,2,49528,0,0.00,2,2,0,2,46982,50000,988,50000,0,0,0,0,0.00,0.00,0.00,0.00
2017-09-19 05:00:00,2,50000,0,0.00,2,2,0,2,50000,50000,0,50000,0,0,0,0,0.00,0.00,0.00,0.00
2017-09-19 05:10:00,2,50000,0,0.00,2,2,0,2,50000,50000,0,50000,0,0,0,0,0.00,0.00,0.00,0.00
2017-09-19 05:20:00,2,50000,0,0.00,2,2,0,2,50000,50000,0,50000,0,0,0,0,0.00,0.00,0.00,0.00
2017-09-19 05:30:00,2,49731,0,0.00,2,2,0,2,47310,50000,807,50000,0,0,0,0,0.00,0.00,0.00,0.00
2017-09-19 05:40:00,2,49793,0,0.00,2,2,0,2,47999,50000,598,50000,0,0,0,0,0.00,0.00,0.00,0.00
2017-09-19 05:50:00,2,49833,0,0.00,2,2,0,2,49109,50000,335,50000,0,0,0,0,0.00,0.00,0.00,0.00
2017-09-19 06:00:00,2,49860,0,0.00,2,2,0,2,49297,50000,280,50000,0,0,0,0,0.00,0.00,0.00,0.00
2017-09-19 06:10:00,2,50000,0,0.00,2,2,0,2,50000,50000,0,50000,0,0,0,0,0.00,0.00,0.00,0.00
2017-09-19 06:20:00,2,49966,0,0.00,2,2,0,2,49661,50000,102,50000,0,0,0,0,0.00,0.00,0.00,0.00
2017-09-19 06:30:00,2,50000,0,0.00,2,2,0,2,50000,50000,0,50000,0,0,0,0,0.00,0.00,0.00,0.00
2017-09-19 06:40:00,2,50000,0,0.00,2,2,0,2,50000,50000,0,50000,0,0,0,0,0.00,0.00,0.00,0.00
2017-09-19 06:50:00,2,50000,0,0.00,2,2,0,2,50000,50000,0,50000,0,0,0,0,0.00,0.00,0.00,0.00
2017-09-19 07:00:00,2,49600,0,0.00,2,2,0,2,46802,50000,963,50000,0,0,0,0,0.00,0.00,0.00,0.00
2017-09-19 07:10:00,2,50000,0,0.00,2,2,0,2,50000,50000,0,50000,0,0,0,0,0.00,0.00,0.00,0.00
2017-09-19 07:20:00,2,50000,0,0.00,2,2,0,2,50000,50000,0,50000,0,0,0,0,0.00,0.00,0.00,0.00
2017-09-19 07:30:00,2,50000,0,0.00,2,2,0,2,50000,50000,0,50000,0,0,0,0,0.00,0.00,0.00,0.00
2017-09-19 07:40:00,2,50000,0,0.00,2,2,0,2,50000,50000,0,50000,0,0,0,0,0.00,0.00,0.00,0.00
2017-09-19 07:50:00,2,50000,0,0.00,2,2,0,2,50000,50000,0,50000,0,0,0,0,0.00,0.00,0.00,0.00
2017-09-19 08:00:00,2,50000,0,0.00,2,2,0,2,50000,50000,0,50000,0,0,0,0,0.00,0.00,0.00,0.00
2017-09-19 08:10:00,2,50000,0,0.00,2,2,0,2,50000,50000,0,50000,0,0,0,0,0.00,0.00,0.00,0.00
2017-09-19 08:20:00,2,50000,0,0.00,2,2,0,2,50000,50000,0,50000,0,0,0,0,0.00,0.00,0.00,0.00
2017-09-19 08:30:00,2,50000,0,0.00,2,2,0,2,50000,50000,0,50000,0,0,0,0,0.00,0.00,0.00,0.00
2017-09-19 08:40:00,2,50000,0,0.00,2,2,0,2,50000,50000,0,50000,0,0,0,0,0.00,0.00,0.00,0.00
2017-09-19 08:50:00,2,50000,0,0.00,2,2,0,2,50000,50000,0,50000,0,0,0,0,0.00,0.00,0.00,0.00
2017-09-19 09:00:00,2,50000,0,0.00,2,2,0,2,50000,50000,0,50000,0,0,0,0,0.00,0.00,0.00,0.00
2017-09-19 09:10:00,2,50000,0,0.00,2,2,0,2,50000,50000,0,50000,0,0,0,0,0.00,0.00,0.00,0.00
2017-09-19 09:20:00,2,50000,0,0.00,2,2,0,2,50000,50000,0,50000,0,0,0,0,0.00,0.00,0.00,0.00
2017-09-19 09:30:00,2,50000,0,0.00,2,2,0,2,50000,50000,0,50000,0,0,0,0,0.00,0.00,0.00,0.00
2017-09-19 09:40:00,2,50000,0,0.00,2,2,0,2,50000,50000,0,50000,0,0,0,0,0.00,0.00,0.00,0.00
2017-09-19 09:50:00,2,50000,0,0.00,2,2,0,2,50000,50000,0,50000,0,0,0,0,0.00,0.00,0.00,0.00
2017-09-19 10:00:00,2,50000,0,0.00,2,2,0,2,50000,50000,0,50000,0,0,0,0,0.00,0.00,0.00,0.00
2017-09-19 10:10:00,2,50000,0,0.00,2,2,0,2,50000,50000,0,50000,0,0,0,0,0.00,0.00,0.00,0.00
2017-09-19 10:20:00,2,50000,0,0.00,2,2,0,2,50000,50000,0,50000,0,0,0,0,0.00,0.00,0.00,0.00
2017-09-19 10:30:00,2,50000,0,0.00,2,2,0,2,50000,50000,0,50000,0,0,0,0,0.00,0.00,0.00,0.00
2017-09-19 10:40:00,2,50000,0,0.00,2,2,0,2,50000,50000,0,50000,0,0,0,0,0.00,0.00,0.00,0.00
2017-09-19 10:50:00,2,50000,0,0.00,2,2,0,2,50000,50000,0,50000,0,0,0,0,0.00,0.00,0.00,0.00
2017-09-19 11:00:00,2,50000,0,0.00,2,2,0,2,50000,50000,0,50000,0,0,0,0,0.00,0.00,0.00,0.00
2017-09-19 11:10:00,2,50000,0,0.00,2,2,0,2,50000,50000,0,50000,0,0,0,0,0.00,0.00,0.00,0.00
2017-09-19 11:20:00,2,50000,0,0.00,2,2,0,2,50000,50000,0,50000,0,0,0,0,0.00,0.00,0.00,0.00
2017-09-19 11:30:00,2,50000,0,0.00,2,2,0,2,50000,50000,0,50000,0,0,0,0,0.00,0.00,0.00,0.00
2017-09-19 11:40:00,2,50000,0,0.00,2,2,0,2,50000,50000,0,50000,0,0,0,0,0.00,0.00,0.00,0.00
2017-09-19 11:50:00,2,50000,0,0.00,2,2,0,2,50000,50000,0,50000,0,0,0,0,0.00,0.00,0.00,0.00
2017-09-19 12:00:00,2,50000,0,0.00,2,2,0,2,50000,50000,0,50000,0,0,0,0,0.00,0.00,0.00,0.00
2017-09-19 12:10:00,2,50000,0,0.00,2,2,0,2,50000,50000,0,50000,0,0,0,0,0.00,0.00,0.00,0.00
2017-09-19 12:20:00,2,50000,0,0.00,2,2,0,2,50000,50000,0,50000,0,0,0,0,0.00,0.00,0.00,0.00
2017-09-19 12:30:00,2,50000,0,0.00,2,2,0,2,50000,50000,0,50000,0,0,0,0,0.00,0.00,0.00,0.00
2017-09-19 12:40:00,2,50000,0,0.00,2,2,0,2,50000,50000,0,50000,0,0,0,0,0.00,0.00,0.00,0.00
2017-09-19 12:50:00,2,50000,0,0.00,2,2,0,2,50000,50000,0,50000,0,0,0,0,0.00,0.00,0.00,0.00
2017-09-19 13:00:00,2,50000,0,0.00,2,2,0,2,50000,50000,0,50000,0,0,0,0,0.00,0.00,0.00,0.00
2017-09-19 13:10:00,2,50000,0,0.00,2,2,0,2,50000,50000,0,50000,0,0,0,0,0.00,0.00,0.00,0.00
2017-09-19 13:20:00,2,50000,0,0.00,2,2,0,2,50000,50000,0,50000,0,0,0,0,0.00,0.00,0.00,0.00
2017-09-19 13:30:00,2,50000,0,0.00,2,2,0,2,50000,50000,0,50000,0,0,0,0,0.00,0.00,0.00,0.00
2017-09-19 13:40:00,2,50000,0,0.00,2,2,0,2,50000,50000,0,50000,0,0,0,0,0.00,0.00,0.00,0.00
2017-09-19 13:50:00,2,50000,0,0.00,2,2,0,2,50000,50000,0,50000,0,0,0,0,0.00,0.00,0.00,0.00
2017-09-19 14:00:00,2,50000,0,0.00,2,2,0,2,50000,50000,0,50000,0,0,0,0,0.00,0.00,0.00,0.00
2017-09-19 14:10:00,2,50000,0,0.00,2,2,0,2,50000,50000,0,50000,0,0,0,0,0.00,0.00,0.00,0.00
2017-09-19 14:20:00,2,50000,0,0.00,2,2,0,2,50000,50000,0,50000,0,0,0,0,0.00,0.00,0.00,0.00
2017-09-19 14:30:00,2,50000,0,0.00,2,2,0,2,50000,50000,0,50000,0,0,0,0,0.00,0.00,0.00,0.00
2017-09-19 14:40:00,2,50000,0,0.00,2,2,0,2,50000,50000,0,50000,0,0,0,0,0.00,0.00,0.00,0.00
2017-09-19 14:50:00,2,50000,0,0.00,2,2,0,2,50000,50000,0,50000,0,0,0,0,0.00,0.00,0.00,0.00
2017-09-19 15:00:00,2,50000,0,0.00,2,2,0,2,50000,50000,0,50000,0,0,0,0,0.00,0.00,0.00,0.00
2017-09-19 15:10:00,2,50000,0,0.00,2,2,0,2,50000,50000,0,50000,0,0,0,0,0.00,0.00,0.00,0.00
2017-09-19 15:20:00,2,50000,0,0.00,2,2,0,2,50000,50000,0,50000,0,0,0,0,0.00,0.00,0.00,0.00
2017-09-19 15:30:00,2,50000,0,0.00,2,2,0,2,50000,50000,0,50000,0,0,0,0,0.00,0.00,0.00,0.00
2017-09-19 15:40:00,2,50000,0,0.00,2,2,0,2,50000,50000,0,50000,0,0,0,0,0.00,0.00,0.00,0.00
2017-09-19 15:50:00,2,50000,0,0.00,2,2,0,2,50000,50000,0,50000,0,0,0,0,0.00,0.00,0.00,0.00
2017-09-19 16:00:00,2,50000,0,0.00,2,2,0,2,50000,50000,0,50000,0,0,0,0,0.00,0.00,0.00,0.00
2017-09-19 16:10:00,2,50000,0,0.00,2,2,0,2,50000,50000,0,50000,0,0,0,0,0.00,0.00,0.00,0.00
2017-09-19 16:20:00,2,50000,0,0.00,2,2,0,2,50000,50000,0,50000,0,0,0,0,0.00,0.00,0.00,0.00
2017-09-19 16:30:00,2,50000,0,0.00,2,2,0,2,50000,50000,0,50000,0,0,0,0,0.00,0.00,0.00,0.00
2017-09-19 16:40:00,2,50000,0,0.00,2,2,0,2,50000,50000,0,50000,0,0,0,0,0.00,0.00,0.00,0.00
2017-09-19 16:50:00,2,50000,0,0.00,2,2,0,2,50000,50000,0,50000,0,0,0,0,0.00,0.00,0.00,0.00
2017-09-19 17:00:00,2,50000,0,0.00,2,2,0,2,50000,50000,0,50000,0,0,0,0,0.00,0.00,0.00,0.00
2017-09-19 17:10:00,2,50000,0,0.00,2,2,0,2,50000,50000,0,50000,0,0,0,0,0.00,0.00,0.00,0.00
2017-09-19 17:20:00,2,50000,0,0.00,2,2,0,2,50000,50000,0,50000,0,0,0,0,0.00,0.00,0.00,0.00
2017-09-19 17:30:00,2,50000,0,0.00,2,2,0,2,50000,50000,0,50000,0,0,0,0,0.00,0.00,0.00,0.00
2017-09-19 17:40:00,2,50000,0,0.00,2,2,0,2,50000,50000,0,50000,0,0,0,0,0.00,0.00,0.00,0.00
2017-09-19 17:50:00,2,50000,0,0.00,2,2,0,2,50000,50000,0,50000,0,0,0,0,0.00,0.00,0.00,0.00
2017-09-19 18:00:00,2,50000,0,0.00,2,2,0,2,50000,50000,0,50000,0,0,0,0,0.00,0.00,0.00,0.00
2017-09-19 18:10:00,2,50000,0,0.00,2,2,0,2,50000,50000,0,50000,0,0,0,0,0.00,0.00,0.00,0.00
2017-09-19 18:20:00,2,50000,0,0.00,2,2,0,2,50000,50000,0,50000,0,0,0,0,0.00,0.00,0.00,0.00
2017-09-19 18:30:00,2,50000,0,0.00,2,2,0,2,50000,50000,0,50000,0,0,0,0,0.00,0.00,0.00,0.00
2017-09-19 18:40:00,2,50000,0,0.00,2,2,0,2,50000,50000,0,50000,0,0,0,0,0.00,0.00,0.00,0.00
2017-09-19 18:50:00,2,50000,0,0.00,2,2,0,2,50000,50000,0,50000,0,0,0,0,0.00,0.00,0.00,0.00
2017-09-19 19:00:00,2,50000,0,0.00,2,2,0,2,50000,50000,0,50000,0,0,0,0,0.00,0.00,0.00,0.00
2017-09-19 19:10:00,2,50000,0,0.00,2,2,0,2,50000,50000,0,50000,0,0,0,0,0.00,0.00,0.00,0.00
2017-09-19 19:20:00,2,50000,0,0.00,2,2,0,2,50000,50000,0,50000,0,0,0,0,0.00,0.00,0.00,0.00
2017-09-19 19:30:00,2,50000,0,0.00,2,2,0,2,50000,50000,0,50000,0,0,0,0,0.00,0.00,0.00,0.00
2017-09-19 19:40:00,2,50000,0,0.00,2,2,0,2,50000,50000,0,50000,0,0,0,0,0.00,0.00,0.00,0.00
2017-09-19 19:50:00,2,50000,0,0.00,2,2,0,2,50000,50000,0,50000,0,0,0,0,0.00,0.00,0.00,0.00
2017-09-19 20:00:00,2,50000,0,0.00,2,2,0,2,50000,50000,0,50000,0,0,0,0,0.00,0.00,0.00,0.00
2017-09-19 20:10:00,2,50000,0,0.00,2,2,0,2,50000,50000,0,50000,0,0,0,0,0.00,0.00,0.00,0.00
2017-09-19 20:20:00,2,50000,0,0.00,2,2,0,2,50000,50000,0,50000,0,0,0,0,0.00,0.00,0.00,0.00
2017-09-19 20:30:00,2,50000,0,0.00,2,2,0,2,50000,50000,0,50000,0,0,0,0,0.00,0.00,0.00,0.00
2017-09-19 20:40:00,2,50000,0,0.00,2,2,0,2,50000,50000,0,50000,0,0,0,0,0.00,0.00,0.00,0.00
2017-09-19 20:50:00,2,50000,0,0.00,2,2,0,2,50000,50000,0,50000,0,0,0,0,0.00,0.00,0.00,0.00
2017-09-19 21:00:00,2,50000,0,0.00,2,2,0,2,50000,50000,0,50000,0,0,0,0,0.00,0.00,0.00,0.00
2017-09-19 21:10:00,2,50000,0,0.00,2,2,0,2,50000,50000,0,50000,0,0,0,0,0.00,0.00,0.00,0.00
2017-09-19 21:20:00,2,50000,0,0.00,2,2,0,2,50000,50000,0,50000,0,0,0,0,0.00,0.00,0.00,0.00
2017-09-19 21:30:00,2,49979,0,0.00,2,2,0,2,49789,50000,63,50000,0,0,0,0,0.00,0.00,0.00,0.00
2017-09-19 21:40:00,2,49975,0,0.00,2,2,0,2,49746,50000,76,50000,0,0,0,0,0.00,0.00,0.00,0.00
2017-09-19 21:50:00,2,50000,0,0.00,2,2,0,2,50000,50000,0,50000,0,0,0,0,0.00,0.00,0.00,0.00
2017-09-19 22:00:00,2,50000,0,0.00,2,2,0,2,50000,50000,0,50000,0,0,0,0,0.00,0.00,0.00,0.00
2017-09-19 22:10:00,2,49886,0,0.00,2,2,0,2,48857,50000,343,50000,0,0,0,0,0.00,0.00,0.00,0.00
2017-09-19 22:20:00,2,50000,0,0.00,2,2,0,2,50000,50000,0,50000,0,0,0,0,0.00,0.00,0.00,0.00
2017-09-19 22:30:00,2,50000,0,0.00,2,2,0,2,50000,50000,0,50000,0,0,0,0,0.00,0.00,0.00,0.00
2017-09-19 22:40:00,2,49802,0,0.00,2,2,0,2,48020,50000,594,50000,0,0,0,0,0.00,0.00,0.00,0.00
2017-09-19 22:50:00,2,50000,0,0.00,2,2,0,2,50000,50000,0,50000,0,0,0,0,0.00,0.00,0.00,0.00
2017-09-19 23:00:00,2,49364,0,0.00,2,2,0,2,46747,50000,1188,50000,0,0,0,0,0.00,0.00,0.00,0.00
2017-09-19 23:10:00,2,47662,0,0.00,2,2,0,2,36336,50000,4314,50000,0,0,0,0,0.00,0.00,0.00,0.00
2017-09-19 23:20:00,2,43308,0,0.00,2,2,0,2,25158,50000,8685,47786,0,0,0,0,0.00,0.00,0.00,0.00
2017-09-19 23:30:00,2,47521,0,0.00,2,2,0,2,41677,50000,2847,48610,0,0,0,0,0.00,0.00,0.00,0.00
2017-09-19 23:40:00,2,45684,0,0.00,2,2,0,2,30520,50000,6052,48783,0,0,0,0,0.00,0.00,0.00,0.00
2017-09-19 23:50:00,2,46633,0,0.00,2,2,0,2,33931,50000,6233,50000,0,0,0,0,0.00,0.00,0.00,0.00
